Retour au catalogue

DELTA 1 DEB

ActifPO
NORAD 7849·DEBRIS·🇺🇸 United States

Lancé Jul 23, 1972 depuis Vandenberg Space Force Base

Loading…

Prochains Passages (prochaines 24 heures)

TLE

FraisSource: Space-Track

Époque: Sep 14, 2026, 10:19 UTC

1 07849U 72058V   26257.42997695  .00001427  00000-0  60321-3 0  9992
2 07849  98.0453 330.9772 0319261 159.5640 201.8647 14.02815945565724

Suivez DELTA 1 DEB en temps réel avec AllMySat

Download on the App Store